Presure
166 168 158 157 155 154 153 131 140 127 134 142 134 136 140 138 130 134 164 159 154 153 160 162 154 174 175 199 199 197 198 196 186 103 174 91 87 187 163 165 172 182 145 176 163
155 154 156 155 154 155 169 131 130 144 128 134 127 145 151 134 159 163 177 180 164 155 161 151 166 168 179 195 192 190 196 199 186 179 150 126 177 138 158 162 149 151 163 173 169
139 157 123 172 190 168 173 131 129 177 142 125 146 154 165 162 132 149 165 136 137 153 158 155 163 163 173 192 177 160 192 201 186 174 156 94 169 101 145 155 158 173 170 177 162
150 158 156 181 153 171 128 171 145 142 174 129 130 132 144 124 153 158 138 156 170 152 166 169 157 165 178 191 180 187 194 202 184 172 98 177 164 165 168 159 157 157 152 149 153
150 155 155 183 173 175 139 190 178 163 137 138 144 153 122 137 157 148 159 161 165 160 162 153 152 159 171 193 176 180 176 191 160 84 158 163 170 145 153 162 159 153 144 162 161
144 141 154 167 191 158 165 160 181 161 141 129 134 148 159 156 147 153 139 156 184 161 158 155 168 163 167 189 176 173 181 193 185 173 164 89 168 150 161 143 160 145 146 153 158
164 166 156 146 169 176 149 195 172 111 128 133 169 144 139 140 151 163 160 154 159 156 167 163 164 167 164 187 177 178 161 174 186 177 107 170 149 164 149 154 154 143 143 153 160
133 127 170 162 154 189 139 172 168 141 132 128 148 148 162 141 156 149 154 165 159 153 153 158 160 169 163 188 175 184 161 165 188 168 103 173 154 167 151 151 145 149 157 152 153
150 161 177 170 150 160 133 156 181 149 159 155 146 141 143 150 156 152 143 161 162 160 159 152 161 176 156 186 177 178 163 160 161 155 164 157 155 155 152 150 157 149 152 142 151
159 137 144 178 178 165 162 195 157 141 152 151 141 180 157 150 149 155 140 167 163 174 168 153 165 171 167 184 176 171 166 154 160 158 152 153 157 159 149 146 150 152 151 152 158
166 142 164 179 183 149 154 143 157 152 164 172 137 149 155 146 139 158 157 165 160 164 155 158 162 165 169 183 175 170 160 165 154 158 150 145 149 143 143 147 156 149 151 150 163
163 128 168 127 153 160 180 147 158 138 138 180 141 154 141 147 144 157 167 164 168 159 172 174 163 172 161 184 172 168 168 160 155 156 156 151 155 146 151 158 160 150 159 154 152
174 176 163 142 170 164 151 148 141 147 161 156 176 176 157 157 165 168 170 162 172 181 166 159 159 167 153 176 176 168 168 163 157 157 160 159 153 150 150 149 153 156 145 148 159
174 157 184 149 135 161 178 176 157 147 155 144 156 170 172 154 173 180 162 160 121 161 160 163 166 172 182 177 173 169 166 169 165 160 158 144 151 154 155 150 156 151 153 150 165
199 132 126 183 132 172 182 139 182 146 167 181 146 161 177 167 175 188 160 162 169 161 173 172 162 166 157 184 178 168 169 167 158 156 160 164 153 156 151 147 154 157 156 159 160
200 183 144 171 131 165 168 158 168 168 166 177 173 164 181 178 174 167 140 153 175 170 163 164 172 185 185 198 162 179 175 175 163 161 155 158 156 157 158 157 160 159 154 156 157
183 129 161 157 157 167 189 181 149 172 172 173 176 162 165 180 175 174 142 167 167 161 173 174 186 165 166 163 177 181 193 190 179 167 166 173 162 168 167 163 164 162 159 143 160
190 187 184 182 176 177 145 180 183 161 178 203 202 166 180 183 162 160 175 161 177 158 173 177 165 179 184 173 172 164 169 178 178 175 169 166 157 160 158 165 168 168 143 156 162
172 176 185 163 170 169 179 179 190 178 181 191 182 183 188 183 165 171 159 159 168 150 158 164 151 145 166 161 160 170 171 164 176 142 163 163 143 59 153 158 145 145 160 176 145
177 177 181 191 186 179 175 174 192 192 192 208 182 180 181 168 168 167 152 163 162 167 143 139 155 156 151 159 173 177 178 156 173 159 165 160 153 82 157 162 166 169 164 165 164
201 204 208 194 196 202 196 202 199 188 201 187 182 185 174 175 172 173 168 170 176 176 166 145 142 174 165 178 149 158 159 165 170 165 164 156 142 153 165 167 168 168 167 152 159
201 201 203 199 195 194 198 197 192 194 188 183 187 173 178 177 160 177 164 164 167 163 148 145 181 183 159 154 166 176 175 173 174 175 173 173 161 158 160 167 163 161 167 166 163
205 199 196 194 194 195 195 188 185 192 189 186 190 190 194 168 169 183 169 184 183 179 157 160 163 169 171 170 172 160 180 175 106 172 172 175 160 159 167 169 173 172 156 160 112
203 195 197 198 185 200 197 183 181 184 183 180 178 179 177 166 175 168 180 166 174 160 164 171 161 159 172 158 172 170 157 140 184 180 172 161 165 159 165 171 178 100 184 180 178
203 200 200 197 197 200 198 187 191 187 187 188 188 185 178 179 183 193 191 175 186 185 172 173 159 177 190 178 192 176 199 189 99 171 178 175 181 175 183 183 185 184 185 185 180
176 186 213 211 207 201 200 199 201 209 206 199 196 185 182 176 175 201 203 161 173 184 180 181 191 189 187 189 188 212 177 189 188 128 100 194 168 151 195 132 134 198 151 141 142
165 168 178 181 173 212 241 251 216 214 204 198 197 199 201 201 202 199 186 185 183 102 120 191 190 216 217 198 202 197 193 135 127 192 168 134 144 214 133 101 110 184 164 120 138
Wind_Speed
50 58 49 51 42 45 45 31 36 32 33 33 39 42 43 38 29 39 45 42 39 39 44 48 44 55 56 37 32 29 25 18 17 27 14 33 36 15 18 17 18 15 25 18 19
36 40 47 46 51 43 59 33 34 40 34 38 32 41 38 38 38 41 50 52 42 41 44 41 51 50 54 37 31 29 26 20 17 15 19 27 14 29 21 17 25 24 21 19 20
32 36 30 54 67 50 57 36 35 50 35 30 42 32 38 39 35 46 43 40 38 42 44 42 48 47 53 37 32 28 26 21 19 18 19 37 18 39 26 22 22 20 21 19 24
27 29 35 61 36 52 37 53 42 38 49 35 36 40 44 26 41 39 41 42 47 41 45 47 44 50 51 36 33 30 26 22 20 20 34 18 22 22 20 22 24 25 28 30 31
23 30 32 59 51 59 42 54 55 50 43 44 41 39 28 48 36 47 39 41 47 44 44 43 43 46 48 36 35 30 28 24 22 34 24 22 22 32 29 26 28 31 35 35 35
28 31 39 47 65 41 42 45 46 44 42 26 48 45 31 33 44 40 45 39 49 47 44 44 51 47 46 37 35 30 27 22 23 23 23 43 23 30 28 38 31 39 41 40 39
42 43 34 23 51 60 37 47 49 23 40 48 35 46 49 48 39 38 39 37 43 43 48 46 48 48 45 36 34 30 30 26 23 24 37 23 35 26 35 33 34 40 43 39 38
39 44 57 49 41 60 45 46 40 48 47 40 46 41 32 49 36 46 39 46 44 43 45 46 47 50 44 36 34 30 29 28 25 28 41 26 31 27 36 38 41 41 39 40 40
38 50 66 50 44 50 33 45 62 45 53 35 44 49 47 41 41 41 44 44 45 46 48 44 49 50 43 36 33 28 30 29 30 34 31 34 35 34 37 39 39 40 41 45 44
42 45 40 62 70 38 55 69 30 51 37 36 52 53 36 40 42 42 46 49 47 51 46 44 51 50 47 38 35 31 29 34 29 30 35 35 35 34 40 42 41 43 44 46 46
55 36 63 71 77 42 54 50 31 38 45 48 54 43 36 50 46 45 45 52 46 47 44 47 49 48 48 39 37 36 33 30 35 33 38 40 38 43 44 43 43 45 47 48 51
57 47 60 46 40 42 64 50 35 55 50 54 55 48 53 45 50 46 56 50 49 47 51 48 47 49 45 36 39 37 34 33 35 37 37 38 37 45 45 45 45 47 49 51 52
52 56 65 46 54 59 51 53 58 45 56 42 64 61 44 57 53 58 57 49 53 47 48 46 47 50 42 43 38 41 38 38 38 39 42 40 41 47 47 47 48 51 51 53 57
63 61 69 53 47 41 71 65 46 45 46 57 50 54 53 44 61 62 48 47 39 50 48 49 50 49 48 45 42 43 43 39 41 41 44 38 47 51 52 51 51 54 57 58 60
55 55 42 71 54 60 65 57 56 45 47 69 55 49 60 53 57 52 48 49 54 49 55 51 47 49 44 43 48 44 46 42 44 45 49 47 49 60 52 54 53 58 60 62 62
62 60 54 62 44 45 48 47 57 53 54 72 62 52 57 56 55 50 45 46 53 54 51 50 55 51 48 41 47 48 46 46 44 46 52 51 51 73 57 60 57 57 60 63 63
67 52 61 63 50 51 70 67 54 65 65 68 66 50 56 60 56 54 48 52 52 50 57 56 50 48 50 49 46 45 45 45 45 49 51 55 52 63 64 61 60 60 62 64 67
66 70 69 68 65 67 55 73 74 64 70 65 63 55 64 60 51 49 56 51 55 48 58 58 50 54 51 51 51 50 51 48 44 49 50 55 56 66 70 67 61 60 62 65 68
57 64 70 52 62 63 74 72 68 67 66 65 65 64 62 58 53 54 50 49 54 41 45 55 46 48 56 54 53 58 54 53 48 53 49 56 62 20 76 70 60 63 65 66 69
65 70 73 71 68 69 69 67 66 63 63 58 61 61 59 52 54 53 48 52 52 54 45 52 56 56 53 55 62 59 57 58 55 51 52 56 60 44 79 78 66 65 64 66 69
62 62 59 68 68 62 65 61 59 62 56 58 59 60 58 56 55 57 60 59 59 59 54 48 52 69 65 71 56 59 62 63 59 60 56 56 65 78 82 83 75 75 72 67 76
60 61 61 63 63 65 63 62 64 60 59 60 61 58 60 58 50 61 58 56 56 53 50 50 65 69 66 61 66 68 69 71 68 69 67 61 56 81 77 84 80 77 75 75 79
57 58 60 59 61 62 63 62 61 65 61 62 62 63 63 56 58 67 61 66 68 65 56 55 54 60 68 72 68 63 74 75 39 73 75 66 62 74 82 85 90 84 69 73 37
50 51 54 55 54 60 61 60 60 62 61 60 60 61 58 55 61 61 67 60 64 59 60 60 58 57 68 66 69 71 67 47 81 79 71 64 61 80 79 86 90 37 86 83 86
50 51 54 54 57 60 61 62 64 61 62 65 65 65 60 65 68 67 68 64 68 69 64 63 59 68 73 71 75 66 74 79 41 77 81 73 80 76 87 89 90 89 89 89 85
27 30 58 60 62 62 61 64 65 69 68 69 68 66 61 60 61 72 75 56 64 71 73 75 72 71 67 73 69 69 68 78 81 25 29 89 62 42 86 27 37 92 29 32 39
34 32 34 39 35 50 60 59 67 67 66 66 68 69 72 72 69 65 64 66 68 37 38 75 76 74 62 72 70 65 74 41 30 75 51 26 42 87 41 37 46 75 55 56 50
Wind_Direction
258 260 266 267 267 268 267 271 276 281 282 287 289 294 295 301 314 314 327 324 328 331 341 342 343 333 339 338 339 342 343 345 341 301 339 313 317 347 322 320 321 323 306 307 303
260 262 267 266 267 272 274 270 276 274 286 284 296 289 294 302 316 324 333 329 331 334 334 328 333 337 336 335 337 336 340 338 336 334 316 319 341 306 321 322 310 312 319 317 313
255 262 267 264 260 270 275 270 276 276 272 286 288 295 314 311 308 305 329 311 313 331 335 337 333 339 334 332 332 326 337 335 332 329 313 310 329 317 317 312 313 328 320 324 315
253 264 271 260 268 273 271 280 272 267 283 288 288 292 287 297 299 317 309 319 328 326 333 327 333 333 333 327 325 332 337 332 325 323 310 334 323 321 320 315 313 313 311 311 315
257 267 269 268 265 275 260 266 277 278 270 273 283 299 294 295 306 306 317 327 323 327 331 327 330 331 332 325 324 329 328 326 318 312 315 324 324 310 315 319 319 315 307 328 328
249 267 276 284 266 256 269 263 273 276 267 280 281 290 301 295 295 303 302 319 319 326 326 327 319 327 331 324 322 322 324 322 314 314 320 311 320 314 317 316 324 318 319 326 327
267 275 273 251 274 277 251 265 282 273 282 274 297 277 286 292 299 315 316 313 319 322 321 320 322 326 327 320 318 319 316 317 309 312 309 318 313 317 315 319 321 314 316 323 322
241 256 270 274 276 268 258 282 272 263 276 287 269 278 300 289 301 300 308 319 317 317 319 319 320 322 325 317 313 317 312 314 310 313 310 313 311 315 315 319 319 319 320 316 317
255 256 263 253 271 270 265 265 275 270 279 269 273 281 280 290 305 303 298 317 315 314 315 316 317 319 321 313 311 314 310 311 311 311 312 312 314 313 314 315 315 315 316 312 315
264 263 245 263 267 249 262 274 260 261 259 272 272 293 290 287 293 304 296 313 314 309 308 312 314 317 320 312 308 308 306 308 309 309 310 312 314 312 312 311 311 316 314 315 317
266 236 257 261 264 238 253 250 261 254 281 290 277 275 288 281 291 305 307 311 309 307 309 309 313 315 318 309 304 304 304 301 305 306 307 308 308 306 306 308 310 312 313 313 322
255 262 266 270 248 259 267 280 260 267 277 284 279 282 284 286 295 302 306 305 303 305 302 307 312 314 318 305 302 303 300 300 304 303 302 302 304 302 306 310 311 312 315 317 318
251 254 251 252 260 258 264 249 261 265 271 275 293 297 291 292 300 301 300 302 299 299 303 309 311 313 317 308 301 301 302 302 303 304 303 304 307 304 305 308 309 312 311 314 316
254 252 250 264 276 255 260 272 272 285 266 269 279 296 294 287 298 295 296 298 297 302 304 309 307 309 306 301 300 300 300 300 301 302 302 305 308 303 304 307 312 311 311 311 314
241 256 271 255 268 258 265 271 261 277 283 286 274 289 295 291 293 287 292 294 294 303 299 303 307 307 309 291 294 296 296 298 301 303 302 303 306 300 303 304 310 311 310 311 311
248 254 266 261 278 264 261 259 273 275 279 288 286 288 286 287 287 285 292 295 291 298 305 306 304 304 305 299 296 292 297 296 299 299 301 307 304 296 303 302 307 308 307 309 310
250 268 264 263 264 270 268 276 262 283 282 284 284 281 288 287 287 285 289 295 296 303 300 300 298 304 306 305 303 298 294 295 294 298 300 299 301 293 297 299 302 305 306 309 307
252 257 261 265 272 277 268 278 278 276 282 278 277 283 287 283 282 286 289 293 290 301 299 298 305 304 299 305 304 306 306 301 299 297 301 301 303 300 298 298 301 302 306 306 306
260 263 263 264 271 271 274 276 277 280 282 281 282 281 279 282 282 287 286 290 294 296 302 303 303 298 307 308 307 306 305 305 304 305 308 302 302 346 297 299 306 306 303 303 306
265 267 269 269 269 271 271 273 275 275 275 275 278 278 280 279 282 285 284 289 292 297 291 295 299 302 301 305 304 302 301 304 305 306 307 304 303 334 297 300 307 304 305 306 304
258 258 261 266 267 268 270 271 271 271 273 274 275 276 278 281 283 285 287 290 289 291 295 296 297 296 301 298 301 305 303 305 307 304 304 300 307 299 297 303 307 303 306 308 307
258 259 261 264 267 269 270 271 272 271 272 275 275 280 281 283 286 287 288 290 294 294 287 288 294 290 299 299 299 298 298 300 303 303 305 303 307 296 300 302 301 302 304 304 304
257 261 263 265 267 269 271 274 277 278 279 278 278 278 276 285 287 283 289 289 288 289 289 292 295 296 297 297 300 300 299 299 297 299 295 303 297 299 300 300 300 301 306 304 332
264 265 267 269 268 271 272 275 275 277 277 279 278 278 279 278 281 281 285 286 288 286 289 292 291 291 292 295 297 298 299 301 297 295 292 298 295 296 294 295 296 329 297 298 296
265 265 267 268 269 269 269 271 272 272 275 277 278 278 279 281 283 282 282 287 289 290 289 287 288 290 292 292 291 295 295 293 314 292 294 290 293 293 290 293 294 297 299 296 300
268 284 265 267 266 268 268 269 271 271 270 273 273 274 274 274 279 280 279 281 285 286 286 288 288 287 289 288 289 292 293 287 289 358 330 293 298 349 293 335 327 293 335 321 319
255 262 273 278 274 269 271 269 266 267 269 272 274 274 275 276 277 276 277 281 283 299 295 285 284 283 285 284 289 294 288 296 344 295 302 356 331 290 316 350 347 298 301 333 305